Douglas, WY

7:46 AM MST on November 21, 2017 (GMT -0700)
Converse County

Weather History for KDGW - October, 2012

Change the Weather History Date:

Tuesday, October 23, 2012

  Actual Average Record
Temperature  
Mean Temperature 47 °F 43 °F  
Max Temperature 62 °F 59 °F 83 °F (2003)
Min Temperature 31 °F 28 °F 19 °F (2008)
Degree Days  
Heating Degree Days 18 22  
Month to date heating degree days 430 413  
Since 1 July heating degree days 558 682  
Cooling Degree Days 0 0  
Month to date cooling degree days 0 0  
Year to date cooling degree days 831 486  
Moisture  
Dew Point 32 °F    
Average Humidity 66    
Maximum Humidity 96    
Minimum Humidity 36    
Precipitation  
Precipitation T in 0.03 in 0.18 in (2010)
Month to date precipitation 0.32 0.89  
Year to date precipitation 4.51 12.17  
Sea Level Pressure  
Sea Level Pressure 29.73 in    
Wind  
Wind Speed 12 mph (NW)    
Max Wind Speed 33 mph    
Max Gust Speed 40 mph    
Visibility 10 miles    
Events      
T = Trace of Precipitation, MM = Missing Value Source: NWS Daily Summary

Daily Weather History Graph

Daily Weather History Graph

Search for Another Location

Airport or City:

Trip Planner

Search our weather history database for the weather conditions in past years. The results will help you decide how hot, cold, wet, or windy it might be!

Date:

Astronomy

Oct. 23, 2012 Rise Set
Actual Time 7:25 AM MDT 6:05 PM MDT
Civil Twilight 6:56 AM MDT 6:34 PM MDT
Nautical Twilight 6:23 AM MDT 7:07 PM MDT
Astronomical Twilight 5:50 AM MDT 7:40 PM MDT
Moon 2:58 PM MDT (10/23) 1:11 AM MDT (10/23)
Length of Visible Light 11h 38m
Length of Day
10h 40m
Waxing Gibbous, 67% of the Moon is Illuminated
Oct 23
Waxing Gibbous
Oct 29
Full
Nov 6
Last Quarter
Nov 13
New
Nov 20
First Quarter

Hourly Weather History & Observations

Time (MDT) Temp. Windchill Dew Point Humidity Pressure Visibility Wind Dir Wind Speed Gust Speed Precip Events Conditions
12:53 AM 45.0 °F 41.8 °F 36.0 °F 71% 29.63 in 10.0 mi ENE 5.8 mph - N/A   Clear
1:53 AM 44.1 °F 38.6 °F 36.0 °F 73% 29.62 in 10.0 mi East 10.4 mph - N/A   Clear
2:53 AM 44.1 °F 38.6 °F 36.0 °F 73% 29.60 in 10.0 mi East 10.4 mph - N/A   Clear
3:53 AM 36.0 °F 33.3 °F 32.0 °F 86% 29.61 in 10.0 mi Variable 3.5 mph - N/A   Clear
4:53 AM 39.9 °F 37.8 °F 34.0 °F 79% 29.59 in 10.0 mi Variable 3.5 mph - N/A   Clear
5:53 AM 36.0 °F 32.1 °F 33.1 °F 89% 29.64 in 10.0 mi NNW 4.6 mph - N/A   Clear
6:53 AM 34.0 °F 29.8 °F 32.0 °F 92% 29.68 in 10.0 mi WNW 4.6 mph - N/A   Clear
7:53 AM 33.1 °F 28.7 °F 30.9 °F 92% 29.68 in 10.0 mi SSE 4.6 mph - N/A   Scattered Clouds
8:53 AM 44.1 °F 42.5 °F 37.0 °F 76% 29.68 in 10.0 mi NW 3.5 mph - N/A   Mostly Cloudy
9:53 AM 48.0 °F - 36.0 °F 63% 29.70 in 10.0 mi Calm Calm - N/A   Mostly Cloudy
11:53 AM 60.1 °F - 34.0 °F 38% 29.67 in 10.0 mi West 20.7 mph 32.2 mph N/A   Clear
12:53 PM 60.1 °F - 34.0 °F 38% 29.67 in 10.0 mi NW 20.7 mph 28.8 mph N/A   Clear
1:53 PM 57.0 °F - 32.0 °F 39% 29.69 in 10.0 mi WNW 27.6 mph 35.7 mph N/A   Mostly Cloudy
2:53 PM 54.0 °F - 32.0 °F 43% 29.73 in 10.0 mi WNW 26.5 mph 34.5 mph N/A   Clear
3:53 PM 50.0 °F - 30.0 °F 46% 29.81 in 10.0 mi WNW 25.3 mph - N/A   Clear
4:53 PM 48.0 °F - 28.0 °F 46% 29.80 in 10.0 mi WNW 21.9 mph 28.8 mph N/A   Partly Cloudy
5:53 PM 46.9 °F - 28.0 °F 48% 29.83 in 10.0 mi WNW 20.7 mph 28.8 mph N/A   Clear
6:53 PM 46.9 °F - 26.1 °F 44% 29.85 in 10.0 mi WNW 26.5 mph 31.1 mph N/A   Scattered Clouds
7:53 PM 46.0 °F 44.8 °F 27.0 °F 47% 29.92 in 10.0 mi Variable 3.5 mph - N/A   Mostly Cloudy
8:53 PM 45.0 °F - 28.0 °F 52% 29.88 in 10.0 mi Calm Calm - N/A   Overcast
9:53 PM 44.1 °F 42.5 °F 28.9 °F 55% 29.86 in 10.0 mi East 3.5 mph - N/A   Mostly Cloudy
10:53 PM 44.1 °F - 28.9 °F 55% 29.83 in 10.0 mi Calm Calm - N/A   Mostly Cloudy